Weather History for Springfield, IL

Change the Weather History Date:

Sunday, August 3, 2014

  Actual Average Record
Temperature  
Mean Temperature 74 °F 75 °F  
Max Temperature 87 °F 85 °F 103 °F (1964)
Min Temperature 60 °F 65 °F 50 °F (1950)
Degree Days  
Heating Degree Days 0 0  
Month to date heating degree days 0 0  
Since 1 June heating degree days 3 16  
Since 1 July heating degree days 3 1  
Cooling Degree Days 9 10  
Month to date cooling degree days 22 30  
Year to date cooling degree days 716 709  
Since 1 June cooling degree days 540 605  
Growing Degree Days 23 (Base 50)    
Moisture  
Dew Point 62 °F    
Average Humidity 73    
Maximum Humidity 97    
Minimum Humidity 48    
Precipitation  
Precipitation 0.00 in 0.11 in 1.53 in (1905)
Month to date precipitation 0.67 0.34  
Year to date precipitation 26.36 22.75  
Snow  
Snow 0.00 in 0.00 in 0.00 in ()
Month to date snowfall 0.0 0.0  
Since 1 June snowfall 0.0 0.0  
Since 1 July snowfall 0.0 0.0  
Snow Depth 0.00 in    
Sea Level Pressure  
Sea Level Pressure 30.13 in    
Wind  
Wind Speed 2 mph (SSE)    
Max Wind Speed 8 mph    
Max Gust Speed 11 mph    
Visibility 9 miles    
Events      
T = Trace of Precipitation, MM = Missing Value Source: NWS Daily Summary

Daily Weather History Graph

Daily Weather History Graph

Search for Another Location

Airport:

Trip Planner

Search our weather history database for the weather conditions in past years. The results will help you decide how hot, cold, wet, or windy it might be!

Date:

Astronomy

Aug. 03, 2014 Rise Set
Actual Time 5:59 AM CDT 8:09 PM CDT
Civil Twilight 5:29 AM CDT 8:39 PM CDT
Nautical Twilight 4:52 AM CDT 9:16 PM CDT
Astronomical Twilight 4:12 AM CDT 9:56 PM CDT
Moon 1:19 PM CDT (8/3) No Moon Set
Length of Visible Light 15h 10m
Length of Day
14h 10m
Waxing Crescent, 47% of the Moon is Illuminated
Aug 3
Waxing Crescent
Aug 3
First Quarter
Aug 10
Full
Aug 17
Last Quarter
Aug 25
New

Hourly Weather History & Observations

Time (CDT) Temp. Heat Index Dew Point Humidity Pressure Visibility Wind Dir Wind Speed Gust Speed Precip Events Conditions
12:52 AM 64.0 °F - 61.0 °F 90% 30.14 in 8.0 mi Calm Calm - N/A   Clear
1:52 AM 63.0 °F - 60.1 °F 90% 30.13 in 10.0 mi Calm Calm - N/A   Clear
2:52 AM 62.6 °F - 60.8 °F 94% 30.15 in 10.0 mi Calm Calm - N/A   Clear
3:52 AM 61.0 °F - 59.0 °F 93% 30.14 in 9.0 mi Calm Calm - N/A   Clear
4:36 AM 61.0 °F - 59.0 °F 93% 30.14 in 2.5 mi Calm Calm - N/A   Partly Cloudy
4:52 AM 60.1 °F - 57.9 °F 93% 30.14 in 2.5 mi Calm Calm - N/A   Partly Cloudy
4:56 AM 60.1 °F - 57.9 °F 93% 30.14 in 1.2 mi Calm Calm - N/A   Partly Cloudy
5:04 AM 60.1 °F - 59.0 °F 96% 30.14 in 2.0 mi Calm Calm - N/A   Partly Cloudy
5:12 AM 60.1 °F - 57.9 °F 93% 30.15 in 10.0 mi Calm Calm - N/A   Partly Cloudy
5:52 AM 61.0 °F - 59.0 °F 93% 30.14 in 10.0 mi Calm Calm - N/A   Clear
6:52 AM 62.1 °F - 60.1 °F 93% 30.17 in 10.0 mi Calm Calm - N/A   Clear
7:52 AM 68.0 °F - 64.0 °F 87% 30.17 in 9.0 mi Calm Calm - N/A   Clear
8:52 AM 73.9 °F - 66.0 °F 76% 30.18 in 10.0 mi Calm Calm - N/A   Clear
9:52 AM 78.8 °F - 64.4 °F 61% 30.20 in 10.0 mi WSW 4.6 mph - N/A   Clear
10:52 AM 80.1 °F 81.7 °F 64.0 °F 58% 30.18 in 10.0 mi West 4.6 mph - N/A   Clear
11:52 AM 82.0 °F 83.8 °F 64.9 °F 56% 30.17 in 10.0 mi Variable 3.5 mph - N/A   Clear
12:52 PM 82.9 °F 84.4 °F 64.0 °F 53% 30.15 in 10.0 mi Calm Calm - N/A   Clear
1:52 PM 82.9 °F 83.7 °F 62.1 °F 49% 30.13 in 10.0 mi Calm Calm - N/A   Clear
2:52 PM 84.9 °F 85.9 °F 63.0 °F 48% 30.11 in 10.0 mi Calm Calm - N/A   Clear
3:52 PM 86.0 °F 87.3 °F 64.0 °F 48% 30.10 in 10.0 mi Calm Calm - N/A   Partly Cloudy
4:52 PM 84.9 °F 87.1 °F 66.0 °F 53% 30.09 in 10.0 mi SE 5.8 mph - N/A   Overcast
5:52 PM 82.0 °F 83.8 °F 64.9 °F 56% 30.08 in 10.0 mi SSE 8.1 mph - N/A   Partly Cloudy
6:52 PM 80.1 °F 81.9 °F 64.9 °F 60% 30.08 in 10.0 mi SSE 4.6 mph - N/A   Partly Cloudy
7:52 PM 77.0 °F - 66.0 °F 69% 30.08 in 10.0 mi SSE 3.5 mph - N/A   Clear
8:52 PM 71.6 °F - 66.2 °F 83% 30.10 in 10.0 mi Calm Calm - N/A   Clear
9:52 PM 70.0 °F - 64.0 °F 81% 30.09 in 10.0 mi SE 3.5 mph - 0.00 in   Clear
10:52 PM 68.0 °F - 63.0 °F 84% 30.10 in 10.0 mi SE 3.5 mph - N/A   Clear
11:52 PM 64.0 °F - 62.1 °F 93% 30.10 in 10.0 mi Calm Calm - N/A   Clear